Vertical_Velocity
-3 1 1 4 -1 -1 1 4 -4 -8 11 16 -4 12 3 0 9 -1 -12 -2 -2 -2 -3 -1 0 1 -2 -5 -2 -1 0 -0 1 -1 -2 -1 1 -0
2 4 4 6 5 6 0 -2 7 2 -30 12 14 1 6 1 5 1 -0 0 1 -2 7 -5 -2 -1 1 3 1 0 -0 -2 -0 -2 -3 -1 -3 -3
2 -0 6 5 1 1 1 0 0 6 -17 8 -3 10 0 -7 1 -2 2 -1 -3 -0 8 1 -1 3 4 -1 3 1 -0 -1 -1 -2 -1 -2 -1 -2
-0 0 0 3 3 2 3 2 -4 7 1 -14 11 2 -6 2 1 -4 1 -6 0 4 6 7 0 -0 4 -1 -2 1 -0 -0 -2 -3 0 -2 -2 -2
1 1 2 1 0 -0 1 -3 -2 -5 -1 -3 -3 7 2 4 8 2 3 2 3 1 4 -1 2 1 5 3 -3 0 -1 -1 -4 -1 -2 -2 -1 -0
1 2 2 2 -1 0 -1 2 3 -4 -2 -3 -5 -1 5 -1 1 3 -0 -3 2 5 2 71 11 8 -2 7 2 5 -3 -1 -2 -2 0 -2 -1 -2
3 2 5 4 0 2 -3 3 0 -1 -2 -4 -1 -2 1 -8 1 63 13 4 1 4 2 0 -2 -1 17 -1 15 4 3 -2 1 -2 -3 -1 0 2
-1 4 1 0 3 5 5 -1 -0 -4 -2 0 -4 -7 5 -36 54 43 -1 14 49 8 9 -2 2 -5 11 10 11 7 1 -2 1 -3 1 0 1 0
2 2 5 4 0 -3 1 0 2 2 1 -6 -4 1 -9 7 8 6 5 -4 -4 -6 18 3 19 1 22 -7 13 3 -1 2 -2 -1 -1 0 1 -1
2 -0 -6 2 7 -3 -2 -3 -1 1 7 1 -8 -8 -2 5 -2 -1 1 -1 23 -9 5 -5 8 12 -2 8 14 3 1 -3 -3 -2 -1 3 -0 -1
3 0 -7 -2 2 5 -9 -6 -3 8 1 -4 0 1 4 -2 0 -6 6 1 6 19 6 27 6 4 14 7 9 -0 -4 -4 1 1 3 0 -2 3
9 4 1 0 1 3 -11 -8 -6 3 -4 1 5 4 -2 1 2 2 5 6 6 12 9 11 16 7 6 7 0 -1 -0 2 1 2 1 -2 -1 3
3 8 9 1 1 2 -3 -6 -5 -2 4 -4 4 2 2 2 0 -0 9 3 11 4 8 13 17 6 6 4 -2 -0 4 -1 2 -0 -1 -2 -1 -1
-0 3 1 4 3 2 -4 -3 4 -4 -2 2 1 -0 5 0 -0 -1 -1 5 6 -0 8 10 21 2 -0 -2 -2 1 0 -2 -1 -1 2 -1 -0 0
-7 -0 3 2 1 0 -3 1 2 -2 -2 -2 -2 -1 3 5 1 9 5 12 7 10 9 15 15 6 1 2 -4 1 -3 -3 -2 -0 -2 -6 -2 -0
-2 2 1 0 -0 -3 1 0 -1 -1 0 -4 -2 -3 3 3 6 12 5 10 6 9 9 5 2 2 -3 -0 -3 -0 -2 -2 -0 0 -1 -3 -2 -1
2 0 1 -0 0 -0 -3 -5 -1 0 0 -3 -3 2 4 11 7 14 10 8 4 3 0 -1 -0 -1 1 -0 -4 -0 0 -2 2 -1 5 1 -4 2
2 2 1 1 1 -2 -3 0 -3 -0 -2 -6 -2 3 4 5 5 15 5 5 0 -1 2 1 -0 -6 -3 1 2 3 2 -0 -0 -1 0 3 -5 -6
-1 2 3 2 -1 -5 -1 1 -1 1 -4 2 6 3 7 10 9 13 5 -3 -2 -2 -1 -3 -1 -0 -1 3 4 7 0 5 0 0 3 6 8 -4
1 2 2 1 -2 0 1 4 2 1 0 5 5 2 3 3 10 8 -4 -3 -1 1 3 1 0 -1 2 -1 -8 5 6 -2 2 3 6 0 -1 -1
-0 2 2 -1 1 1 -0 7 3 3 6 8 11 5 3 9 12 2 2 1 2 3 1 -4 -1 3 -0 -1 -0 -7 -9 4 6 8 1 -1 -5 -6
0 1 0 1 2 -0 -0 8 3 5 10 1 2 -0 1 2 -3 -3 0 1 2 -0 -3 1 1 -2 -2 -0 1 5 1 -5 -1 1 -1 2 3 -7
2 0 -0 0 0 0 1 6 4 7 5 4 4 1 4 -2 -2 1 1 5 -2 -3 1 0 -1 0 -1 0 -0 1 3 1 -3 -1 4 -1 0 1
Height
5637 5633 5627 5624 5618 5614 5608 5603 5597 5590 5589 5591 5589 5590 5585 5580 5577 5573 5570 5567 5565 5560 5558 5558 5557 5554 5551 5549 5547 5545 5543 5541 5538 5534 5530 5526 5522 5518
5613 5608 5604 5602 5599 5597 5592 5588 5581 5573 5568 5572 5572 5571 5567 5564 5562 5558 5554 5553 5551 5549 5545 5545 5544 5541 5538 5536 5534 5532 5530 5528 5525 5521 5517 5513 5508 5503
5590 5585 5583 5580 5576 5572 5571 5569 5564 5558 5549 5555 5550 5552 5549 5547 5544 5541 5539 5536 5536 5534 5532 5531 5531 5529 5527 5525 5522 5519 5516 5514 5512 5508 5504 5499 5494 5488
5569 5565 5561 5557 5552 5548 5545 5544 5542 5541 5533 5530 5535 5532 5528 5529 5525 5523 5523 5520 5521 5520 5517 5516 5516 5516 5514 5513 5510 5507 5504 5502 5498 5494 5490 5485 5478 5471
5552 5547 5542 5537 5532 5529 5526 5522 5520 5519 5517 5511 5514 5512 5511 5512 5509 5506 5506 5505 5505 5504 5501 5502 5502 5501 5500 5499 5497 5494 5491 5488 5486 5481 5475 5468 5461 5455
5531 5527 5523 5518 5514 5510 5507 5504 5500 5496 5495 5492 5493 5495 5494 5493 5492 5490 5490 5489 5490 5489 5489 5483 5486 5487 5485 5485 5484 5482 5478 5475 5471 5467 5460 5452 5446 5439
5512 5506 5502 5498 5494 5489 5485 5485 5481 5478 5477 5474 5473 5474 5476 5474 5476 5471 5474 5473 5474 5475 5473 5472 5474 5473 5468 5469 5471 5468 5465 5460 5457 5452 5445 5438 5431 5424
5489 5485 5480 5476 5472 5468 5466 5463 5462 5460 5458 5455 5455 5455 5457 5454 5453 5451 5455 5453 5453 5461 5459 5460 5460 5458 5457 5456 5455 5454 5449 5446 5442 5436 5430 5424 5416 5408
5465 5461 5460 5456 5451 5446 5446 5444 5443 5442 5437 5435 5435 5437 5435 5436 5433 5434 5438 5439 5442 5440 5441 5443 5446 5443 5442 5442 5442 5439 5436 5433 5427 5422 5416 5408 5401 5392
5444 5439 5438 5436 5429 5422 5420 5423 5424 5423 5421 5416 5413 5415 5414 5416 5417 5420 5422 5420 5422 5425 5427 5427 5429 5429 5428 5430 5429 5426 5423 5419 5414 5407 5400 5393 5386 5377
5424 5419 5415 5412 5408 5400 5397 5398 5402 5404 5399 5397 5397 5397 5397 5399 5402 5403 5406 5406 5406 5409 5410 5411 5415 5415 5416 5416 5415 5412 5410 5405 5399 5392 5385 5378 5370 5361
5402 5398 5394 5387 5384 5379 5375 5375 5377 5380 5379 5380 5380 5382 5384 5385 5389 5391 5391 5392 5392 5394 5398 5400 5402 5403 5403 5403 5401 5399 5395 5390 5383 5377 5371 5363 5355 5348
5374 5374 5371 5365 5362 5361 5357 5356 5356 5357 5359 5361 5364 5368 5370 5372 5376 5377 5378 5378 5381 5383 5386 5387 5389 5391 5392 5391 5389 5387 5382 5376 5369 5362 5355 5347 5341 5336
5346 5347 5346 5345 5344 5344 5343 5342 5340 5339 5341 5345 5351 5357 5358 5361 5364 5365 5365 5366 5369 5371 5373 5376 5378 5380 5381 5379 5376 5374 5367 5361 5355 5348 5340 5334 5329 5323
5322 5323 5324 5327 5328 5329 5329 5328 5329 5329 5331 5335 5340 5346 5348 5351 5351 5353 5354 5355 5357 5361 5363 5366 5368 5368 5368 5366 5363 5359 5352 5346 5340 5333 5327 5321 5317 5313
5303 5305 5307 5311 5314 5316 5316 5318 5318 5320 5321 5325 5331 5336 5339 5342 5343 5344 5344 5345 5348 5351 5355 5357 5359 5359 5357 5354 5349 5343 5337 5332 5325 5319 5314 5309 5306 5303
5290 5291 5294 5298 5302 5304 5307 5307 5309 5310 5312 5317 5323 5327 5331 5333 5336 5337 5338 5340 5343 5346 5350 5352 5351 5350 5347 5341 5336 5329 5322 5316 5311 5306 5302 5296 5294 5292
5279 5280 5283 5288 5293 5296 5299 5300 5300 5302 5306 5311 5316 5319 5323 5326 5329 5332 5332 5335 5338 5341 5342 5343 5342 5339 5335 5328 5323 5316 5309 5303 5297 5293 5290 5286 5281 5279
5269 5270 5276 5281 5286 5289 5291 5293 5295 5297 5301 5305 5310 5314 5316 5319 5322 5325 5327 5330 5332 5333 5335 5334 5331 5326 5321 5317 5311 5304 5297 5291 5286 5282 5278 5274 5269 5263
5261 5263 5270 5275 5280 5284 5287 5289 5290 5293 5297 5301 5305 5307 5310 5313 5317 5320 5323 5326 5327 5328 5327 5324 5319 5315 5309 5303 5297 5293 5287 5281 5277 5270 5263 5257 5253 5248
5254 5259 5265 5270 5274 5278 5282 5284 5286 5289 5294 5297 5300 5303 5306 5308 5312 5316 5319 5322 5322 5321 5319 5315 5311 5305 5299 5292 5286 5280 5278 5275 5268 5259 5249 5239 5234 5231
5250 5255 5260 5265 5270 5274 5278 5281 5283 5288 5291 5294 5296 5301 5304 5307 5310 5315 5318 5318 5317 5315 5310 5307 5302 5295 5289 5284 5279 5273 5264 5257 5253 5245 5235 5228 5223 5219
5246 5252 5257 5261 5266 5271 5276 5279 5282 5286 5289 5292 5295 5300 5304 5306 5311 5314 5314 5314 5311 5308 5305 5299 5294 5288 5284 5278 5270 5260 5251 5242 5234 5230 5225 5221 5217 5214